7 * 24
多渠道服务支持
STARLINK-37463(NORAD编号68854)是SpaceX星链(Starlink)互联网卫星星座中的一颗卫星,归属美国太空探索技术公司(SpaceX)运营部署。星链项目旨在打造全球覆盖的低轨卫星互联网,为地面偏远地区、海洋、航空等场景提供高速宽带服务。作为Starlink星座中一颗近地轨道卫星,它承担着太空互联网节点数据中继传输功能,与数万颗星链卫星组网,共同构建全球卫星通信网络,提供宽带接入服务,支撑用户的互联网连接需求。
美国
(US)
| 数据来源 | 国际轨道数据 |
| 星历时间: | 2026-05-24T12:00:02+0800 1天前 查看轨道信息 |
| 半长轴: | 6791.331km |
| 偏心率: | 0.0001452 |
| 轨道倾角: | 97.284° |
| 近地点辐角 | 63.061° |
| 升交点赤经 | 158.927° |
| 平近点角 | 2.643° |
| 近地点: | 412.207km |
| 远地点: | 414.181km |
| 周期: | 92.831分钟 |
| 每日圈数: | 15.512094 |